Powrót do katalogu

STARLINK-32650

AktywnyŁącznośćVLEO
NORAD 62231·PAYLOAD·🇺🇸 United States

Wystrzelony Dec 5, 2024 z Vandenberg Space Force Base

Loading…

Następne Przeloty (najbliższe 24 godziny)

TLE

ŚwieżeSource: CelesTrak SupGP

Epoka: Sep 15, 2026, 02:27 UTC

1 62231C 24231P   26258.10256944 -.00029728  00000+0 -95578-3 0  2584
2 62231  53.1591  58.9145 0001043  82.0804 190.6774 15.31723860    13

Śledź STARLINK-32650 w czasie rzeczywistym z AllMySat

Download on the App Store